Find Starlink 2618

NORAD ID: 48693 Int'l Des: 2021-044 Owner: SPXS Country: US Constellation: starlink operational
LEOCIRCULAR

实时位置

正在加载3D地球...

关于 Starlink 2618

正在加载描述...

即将过境

Passes for default location (London). Set your location on the main map for personalized predictions.

高度历史

Loading altitude history...

两行轨道根数

1 48693U 21044BH 26106.68788057 .00002452 00000-0 90718-4 0 9997
2 48693 53.1591 258.6816 0001179 86.7584 273.3553 15.31711864270181
Epoch: Apr 16, 2026 • Age: 10 hours

当前状态

高度 472.8 km
速度 7.63 km/s
星下点 35.66°N, 52.3°E
发射日期 May 26, 2021
运行时间 4.8 years
类型 internet

技术详情

分类 Payload
质量 260.00 kg
干质量 248.00 kg
总质量 260.00 kg
长度 0.20 m
直径 2.80 m
跨度 9.00 m
形状 Box + pan
制造商 SPXS
平台类型 Starlink
阶段状态 In Orbit
所有者/国家 SPXS/US

Most Searched